Weather History for KJYG - September, 2013

Change the Weather History Date:

Monday, September 2, 2013

  Actual Average Record
Temperature  
Mean Temperature 58 °F -  
Max Temperature 69 °F 78 °F 93 °F (1958)
Min Temperature 48 °F 55 °F 43 °F (1987)
Degree Days  
Heating Degree Days 6    
Growing Degree Days 8 (Base 50)    
Moisture  
Dew Point 51 °F    
Average Humidity 77    
Maximum Humidity 94    
Minimum Humidity 49    
Precipitation  
Precipitation 0.00 in - - ()
Sea Level Pressure  
Sea Level Pressure 30.08 in    
Wind  
Wind Speed 5 mph (NW)    
Max Wind Speed 13 mph    
Max Gust Speed 9 mph    
Visibility 10 miles    
Events      
Averages and records for this station are not official NWS values.
T = Trace of Precipitation, MM = Missing Value Source: NWS Daily Summary

Daily Weather History Graph

Daily Weather History Graph

Search for Another Location

Airport or City:

Trip Planner

Search our weather history database for the weather conditions in past years. The results will help you decide how hot, cold, wet, or windy it might be!

Date:

Astronomy

Sep. 02, 2013 Rise Set
Actual Time 6:42 AM CDT 7:51 PM CDT
Civil Twilight 6:13 AM CDT 8:21 PM CDT
Nautical Twilight 5:37 AM CDT 8:56 PM CDT
Astronomical Twilight 5:00 AM CDT 9:34 PM CDT
Moon 3:57 AM CDT (9/2) 6:08 PM CDT (9/2)
Length of Visible Light 14h 08m
Length of Day
13h 08m
Waning Crescent, 8% of the Moon is Illuminated
Sep 2
Waning Crescent
Sep 5
New
Sep 12
First Quarter
Sep 19
Full
Sep 26
Last Quarter

Hourly Weather History & Observations

Time (CDT) Temp. Dew Point Humidity Pressure Visibility Wind Dir Wind Speed Gust Speed Precip Events Conditions
12:15 AM 57.2 °F 53.6 °F 88% 30.03 in 10.0 mi WNW 4.6 mph - N/A   Clear
12:34 AM 55.4 °F 53.6 °F 94% 30.04 in 10.0 mi WNW 5.8 mph - N/A   Clear
12:55 AM 55.4 °F 53.6 °F 94% 30.03 in 10.0 mi WNW 5.8 mph - N/A   Clear
1:15 AM 55.4 °F 51.8 °F 88% 30.03 in 10.0 mi NW 5.8 mph - N/A   Clear
1:35 AM 55.4 °F 51.8 °F 88% 30.04 in 10.0 mi WNW 4.6 mph - N/A   Clear
1:55 AM 53.6 °F 51.8 °F 94% 30.04 in 10.0 mi WNW 4.6 mph - N/A   Clear
2:15 AM 53.6 °F 51.8 °F 94% 30.04 in 10.0 mi WNW 4.6 mph - N/A   Clear
2:34 AM 53.6 °F 51.8 °F 94% 30.04 in 10.0 mi WNW 4.6 mph - N/A   Clear
2:55 AM 53.6 °F 51.8 °F 94% 30.04 in 10.0 mi WNW 5.8 mph - N/A   Clear
3:15 AM 53.6 °F 51.8 °F 94% 30.05 in 10.0 mi WNW 5.8 mph - N/A   Clear
3:34 AM 51.8 °F 50.0 °F 94% 30.05 in 10.0 mi WNW 4.6 mph - N/A   Clear
3:55 AM 51.8 °F 50.0 °F 94% 30.05 in 10.0 mi WNW 4.6 mph - N/A   Clear
4:15 AM 51.8 °F 50.0 °F 94% 30.06 in 10.0 mi WNW 4.6 mph - N/A   Scattered Clouds
4:35 AM 51.8 °F 50.0 °F 94% 30.06 in 10.0 mi West 4.6 mph - N/A   Clear
4:54 AM 51.8 °F 50.0 °F 94% 30.06 in 10.0 mi West 4.6 mph - N/A   Clear
5:15 AM 51.8 °F 50.0 °F 94% 30.06 in 10.0 mi West 4.6 mph - N/A   Clear
5:35 AM 51.8 °F 48.2 °F 88% 30.07 in 10.0 mi West 4.6 mph - N/A   Clear
5:55 AM 51.8 °F 48.2 °F 88% 30.07 in 10.0 mi West 3.5 mph - N/A   Clear
6:15 AM 50.0 °F 48.2 °F 94% 30.08 in 10.0 mi West 3.5 mph - N/A   Clear
6:34 AM 50.0 °F 48.2 °F 94% 30.08 in 10.0 mi West 3.5 mph - N/A   Clear
6:55 AM 48.2 °F 46.4 °F 93% 30.09 in 7.0 mi Calm Calm - N/A   Clear
7:15 AM 48.2 °F 46.4 °F 93% 30.09 in 7.0 mi WNW 5.8 mph - N/A   Clear
7:34 AM 51.8 °F 48.2 °F 88% 30.09 in 10.0 mi WNW 4.6 mph - N/A   Clear
7:55 AM 51.8 °F 50.0 °F 94% 30.10 in 10.0 mi WNW 4.6 mph - N/A   Clear
8:15 AM 53.6 °F 51.8 °F 94% 30.10 in 10.0 mi NW 3.5 mph - N/A   Clear
8:34 AM 55.4 °F 51.8 °F 88% 30.10 in 10.0 mi NW 5.8 mph - N/A   Clear
8:55 AM 55.4 °F 51.8 °F 88% 30.10 in 10.0 mi NW 6.9 mph - N/A   Clear
9:15 AM 57.2 °F 53.6 °F 88% 30.11 in 10.0 mi NNW 5.8 mph - N/A   Clear
9:35 AM 59.0 °F 53.6 °F 82% 30.12 in 10.0 mi NNW 5.8 mph - N/A   Clear
9:54 AM 60.8 °F 53.6 °F 77% 30.12 in 10.0 mi WNW 5.8 mph - N/A   Clear
10:15 AM 60.8 °F 53.6 °F 77% 30.12 in 10.0 mi NW 5.8 mph - N/A   Clear
10:35 AM 62.6 °F 51.8 °F 68% 30.12 in 10.0 mi WNW 10.4 mph - N/A   Clear
10:55 AM 64.4 °F 51.8 °F 64% 30.12 in 10.0 mi NW 9.2 mph - N/A   Clear
11:15 AM 64.4 °F 51.8 °F 64% 30.12 in 10.0 mi NW 9.2 mph - N/A   Scattered Clouds
11:34 AM 64.4 °F 51.8 °F 64% 30.12 in 10.0 mi NW 8.1 mph - N/A   Scattered Clouds
11:55 AM 66.2 °F 51.8 °F 60% 30.12 in 10.0 mi NW 12.7 mph - N/A   Scattered Clouds
12:15 PM 66.2 °F 51.8 °F 60% 30.12 in 10.0 mi NW 10.4 mph - N/A   Scattered Clouds
12:35 PM 66.2 °F 51.8 °F 60% 30.11 in 10.0 mi NNW 3.5 mph - N/A   Scattered Clouds
12:55 PM 66.2 °F 51.8 °F 60% 30.10 in 10.0 mi NW 10.4 mph - N/A   Clear
1:14 PM 66.2 °F 51.8 °F 60% 30.10 in 10.0 mi NW 5.8 mph - N/A   Clear
1:35 PM 68.0 °F 51.8 °F 56% 30.09 in 10.0 mi NNW 5.8 mph - N/A   Clear
1:54 PM 68.0 °F 51.8 °F 56% 30.09 in 10.0 mi NNW 9.2 mph - N/A   Clear
2:15 PM 69.8 °F 51.8 °F 53% 30.09 in 10.0 mi North 8.1 mph - N/A   Clear
2:34 PM 69.8 °F 50.0 °F 49% 30.09 in 10.0 mi NW 9.2 mph - N/A   Clear
2:55 PM 69.8 °F 51.8 °F 53% 30.08 in 10.0 mi NNW 5.8 mph 9.2 mph N/A   Clear
3:15 PM 69.8 °F 51.8 °F 53% 30.08 in 10.0 mi NW 6.9 mph - N/A   Clear
3:35 PM 69.8 °F 50.0 °F 49% 30.08 in 10.0 mi NW 5.8 mph - N/A   Clear
3:54 PM 69.8 °F 51.8 °F 53% 30.07 in 10.0 mi NNW 5.8 mph - N/A   Clear
4:15 PM 69.8 °F 51.8 °F 53% 30.07 in 10.0 mi North 6.9 mph - N/A   Clear
4:35 PM 69.8 °F 51.8 °F 53% 30.07 in 10.0 mi NW 6.9 mph - N/A   Clear
4:55 PM 69.8 °F 51.8 °F 53% 30.06 in 10.0 mi North 3.5 mph - N/A   Clear
5:15 PM 69.8 °F 51.8 °F 53% 30.07 in 10.0 mi North 3.5 mph - N/A   Clear
5:34 PM 69.8 °F 51.8 °F 53% 30.07 in 10.0 mi North 4.6 mph - N/A   Clear
5:55 PM 68.0 °F 51.8 °F 56% 30.07 in 10.0 mi NNE 4.6 mph - N/A   Clear
6:15 PM 68.0 °F 53.6 °F 60% 30.06 in 10.0 mi NE 4.6 mph - N/A   Clear
6:35 PM 66.2 °F 53.6 °F 64% 30.07 in 10.0 mi Calm Calm - N/A   Clear
6:55 PM 66.2 °F 51.8 °F 60% 30.07 in 10.0 mi NNE 4.6 mph - N/A   Clear
7:15 PM 64.4 °F 53.6 °F 68% 30.06 in 10.0 mi NE 3.5 mph - N/A   Clear
7:35 PM 62.6 °F 53.6 °F 72% 30.06 in 10.0 mi NNE 3.5 mph - N/A   Clear
7:54 PM 60.8 °F 53.6 °F 77% 30.06 in 10.0 mi Calm Calm - N/A   Clear
8:15 PM 60.8 °F 53.6 °F 77% 30.06 in 10.0 mi Calm Calm - N/A   Clear
8:35 PM 57.2 °F 53.6 °F 88% 30.07 in 10.0 mi Calm Calm - N/A   Clear
8:54 PM 57.2 °F 53.6 °F 88% 30.08 in 10.0 mi Calm Calm - N/A   Clear
9:15 PM 57.2 °F 51.8 °F 82% 30.08 in 10.0 mi ENE 3.5 mph - N/A   Clear
9:34 PM 55.4 °F 51.8 °F 88% 30.08 in 10.0 mi East 3.5 mph - N/A   Clear
9:55 PM 55.4 °F 51.8 °F 88% 30.08 in 10.0 mi Calm Calm - N/A   Clear
10:15 PM 53.6 °F 50.0 °F 88% 30.08 in 10.0 mi Calm Calm - N/A   Clear
10:34 PM 53.6 °F 51.8 °F 94% 30.08 in 10.0 mi Calm Calm - N/A   Clear
10:55 PM 53.6 °F 50.0 °F 88% 30.09 in 10.0 mi Calm Calm - N/A   Clear
11:15 PM 51.8 °F 48.2 °F 88% 30.08 in 10.0 mi ESE 3.5 mph - N/A   Clear
11:35 PM 51.8 °F 50.0 °F 94% 30.08 in 10.0 mi East 3.5 mph - N/A   Clear
11:54 PM 51.8 °F 48.2 °F 88% 30.08 in 10.0 mi Calm Calm - N/A   Clear